CAPE
0 0 0 0 0 0 0 0 0 0 0 0 0 16 16 31 12 0 0 0 0 0 0 0 0 0 0 0 0 0 0 0 0 0 0 0 0 0 0 0 0 0 1
0 0 0 0 0 0 0 0 0 0 0 0 0 12 6 0 0 0 0 0 0 0 0 0 0 0 0 0 0 0 0 0 0 0 0 0 0 0 0 0 0 0 1
0 0 0 0 0 0 0 0 0 0 0 0 0 14 17 8 0 0 0 0 0 0 0 0 0 0 0 0 0 0 0 0 0 0 0 0 0 0 0 0 0 0 0
0 0 0 0 0 0 0 0 0 0 0 0 0 0 5 6 2 0 0 0 0 0 0 1 2 1 0 0 0 0 0 0 0 0 0 0 0 0 0 0 0 0 0
0 0 0 0 0 0 0 0 0 0 0 0 0 0 0 0 0 0 0 0 0 0 0 0 0 0 0 0 0 0 0 0 0 0 0 0 0 0 0 0 0 0 0
0 0 0 0 0 0 0 0 0 0 0 0 0 0 0 0 0 0 0 0 0 0 0 0 0 0 0 0 0 0 0 0 0 0 0 0 0 0 0 0 0 0 0
0 0 0 0 0 0 0 0 0 0 0 0 0 0 0 0 0 0 0 0 0 0 0 0 0 0 0 5 12 0 0 0 0 0 0 0 0 0 0 0 0 0 0
0 0 0 0 0 0 0 0 0 0 0 0 0 0 0 0 0 0 0 0 0 0 0 0 0 0 0 1 17 19 11 2 0 0 0 0 0 0 3 8 9 12 10
0 0 0 0 0 0 0 0 0 0 0 0 0 0 0 0 0 0 0 0 0 0 0 0 0 0 0 0 1 23 42 51 35 3 0 0 0 4 8 15 11 13 18
0 0 0 0 0 0 0 0 0 0 0 0 0 0 0 0 0 0 0 0 0 0 0 0 0 0 0 0 0 5 10 29 18 38 9 7 0 0 0 1 6 7 13
0 0 0 0 0 0 0 0 0 0 0 0 0 0 0 0 0 0 0 0 0 0 0 0 0 0 0 0 0 0 9 52 11 18 26 17 0 0 0 0 2 5 6
0 0 0 0 0 0 0 0 0 0 0 0 0 0 0 0 0 0 0 0 0 0 0 0 0 0 0 0 1 3 7 28 25 21 2 4 0 0 0 0 0 2 5
0 0 0 0 0 0 0 0 0 0 0 0 0 0 0 0 0 0 0 0 0 0 0 0 0 0 0 0 1 18 29 33 21 25 11 0 0 0 0 0 0 0 0
0 0 0 0 0 0 0 0 0 0 0 0 0 0 0 0 0 0 0 0 0 0 0 0 0 0 0 0 1 9 11 16 17 17 21 11 0 0 0 0 0 0 0
0 0 0 0 0 0 0 0 0 0 0 0 0 0 0 0 0 0 0 0 0 0 0 0 0 0 0 0 0 0 0 0 7 29 44 12 0 0 0 0 0 0 0
0 0 0 0 0 0 0 0 0 0 0 0 0 0 0 0 0 0 0 0 0 0 0 0 0 0 0 0 0 0 0 5 20 71 48 20 0 0 0 1 0 1 2
68 14 0 0 0 0 0 0 0 0 0 0 0 0 0 0 0 0 0 0 0 0 0 0 0 0 0 0 0 0 0 0 0 0 0 0 0 1 11 7 0 0 3
127 127 133 67 7 0 0 0 0 0 0 0 0 0 0 0 0 0 0 0 0 0 0 0 0 0 0 0 0 0 0 0 0 0 0 0 0 0 0 0 0 0 0
147 107 70 32 23 0 0 0 0 0 0 0 0 0 0 0 0 0 0 0 0 0 0 0 0 0 0 0 0 0 0 0 0 0 0 0 0 0 0 0 0 0 0
161 81 54 38 17 0 0 0 0 0 0 0 0 0 0 0 0 0 0 0 0 0 0 0 0 0 0 0 0 0 0 0 0 0 0 0 0 0 0 0 0 0 0
218 171 131 78 50 16 0 0 0 0 0 0 0 0 0 0 0 0 0 0 0 0 0 0 0 0 0 0 0 0 0 0 0 0 0 0 0 0 0 0 0 0 0
214 181 155 107 185 115 84 35 0 1 0 2 0 0 0 0 0 0 0 0 0 0 0 0 0 0 0 0 0 0 0 0 0 0 0 0 0 0 0 0 0 0 0
99 108 132 136 130 166 100 42 20 29 44 38 19 29 22 1 0 0 1 0 0 0 0 0 0 0 0 0 0 0 0 0 0 0 0 0 0 0 0 0 0 0 0
29 25 56 53 57 60 63 24 21 24 33 32 16 23 23 7 3 1 1 1 0 0 0 0 0 0 0 1 0 0 0 0 0 0 0 0 0 0 0 0 0 0 0
0 9 14 46 49 5 27 30 2 20 27 20 17 30 13 18 0 0 1 1 0 0 0 0 0 0 3 0 0 0 0 0 1 0 0 0 0 0 0 0 0 0 0
0 0 0 0 0 3 7 22 11 1 0 3 3 5 3 7 0 0 1 1 0 0 0 0 2 1 0 0 0 0 0 0 0 0 0 0 0 0 0 0 0 0 0
CIN
0 0 0 0 0 0 0 0 0 0 0 0 0 -42 -38 -34 -29 0 0 0 0 0 0 0 0 0 0 0 0 0 0 0 0 0 0 0 0 0 0 0 0 0 0
0 0 0 0 0 0 0 0 0 0 0 0 0 -55 -31 0 0 0 0 0 0 0 0 0 0 0 0 0 0 0 0 0 0 0 0 0 0 0 0 0 0 0 0
0 0 0 0 0 0 0 0 0 0 0 0 -6 -67 -57 -53 0 0 0 0 0 0 0 0 0 0 0 0 0 0 0 0 0 0 0 0 0 0 0 0 0 0 0
0 0 0 0 0 0 0 0 0 0 0 0 0 0 -66 -74 -53 0 0 0 0 0 0 -1 -1 -1 0 0 0 0 0 0 0 0 0 0 0 0 0 0 0 0 0
0 0 0 0 0 0 0 0 0 0 0 0 0 0 0 0 0 0 0 0 0 0 0 0 0 0 0 0 0 0 0 0 0 0 0 0 0 0 0 0 0 0 0
0 0 0 0 0 0 0 0 0 0 0 0 0 0 0 0 0 0 0 0 0 0 0 0 0 0 0 0 0 0 0 0 0 0 0 0 0 0 0 0 0 0 0
0 0 0 0 0 0 0 0 0 0 0 0 0 0 0 0 0 0 0 0 0 0 0 0 0 0 0 -20 -16 0 0 0 0 0 0 0 0 0 0 0 0 0 0
0 0 0 0 0 0 0 0 0 0 0 0 0 0 0 0 0 0 0 0 0 0 0 0 0 0 0 -39 -33 -17 -12 -2 0 0 0 0 0 0 0 0 -1 -1 -1
0 0 0 0 0 0 0 0 0 0 0 0 0 0 0 0 0 0 0 0 0 0 0 0 0 0 0 0 -5 -32 -15 -5 -9 -4 0 0 0 -1 -1 -1 -1 0 0
0 0 0 0 0 0 0 0 0 0 0 0 0 0 0 0 0 0 0 0 0 0 0 0 0 0 0 0 0 -63 -59 -24 -10 -7 -4 -7 0 0 0 -1 -1 0 0
0 0 0 0 0 0 0 0 0 0 0 0 0 0 0 0 0 0 0 0 0 0 0 0 0 0 0 0 0 0 -61 -37 -27 -16 -9 -9 0 0 0 0 -1 -1 0
0 0 0 0 0 0 0 0 0 0 0 0 0 0 0 0 0 0 0 0 0 0 0 0 0 0 0 0 -132 -105 -80 -64 -49 -22 -3 -11 0 0 0 0 0 0 0
0 0 0 0 0 0 0 0 0 0 0 0 0 0 0 0 0 0 0 0 0 0 0 0 0 0 0 0 -62 -59 -48 -24 -31 -26 -28 0 0 0 0 0 0 0 0
0 0 0 0 0 0 0 0 0 0 0 0 0 0 0 0 0 0 0 0 0 0 0 0 0 0 0 0 -76 -58 -52 -21 -30 -24 -24 -17 0 0 0 0 0 0 0
0 0 0 0 0 0 0 0 0 0 0 0 0 0 0 0 0 0 0 0 0 0 0 0 0 0 0 0 0 0 0 0 -49 -22 -13 -18 0 0 0 0 0 0 0
0 0 0 0 0 0 0 0 0 0 0 0 0 0 0 0 0 0 0 0 0 0 0 0 0 0 0 0 0 0 0 -65 -53 -45 -18 -15 -17 0 0 -13 0 -7 -6
-150 -123 0 0 0 0 0 0 0 0 0 0 0 0 0 0 0 0 0 0 0 0 0 0 0 0 0 0 0 0 0 0 0 0 0 0 0 -14 -31 -21 0 0 -16
-128 -121 -105 -112 -133 0 0 0 0 0 0 0 0 0 0 0 0 0 0 0 0 0 0 0 0 0 0 0 0 0 0 0 0 0 0 0 0 0 0 0 0 0 -1
-124 -129 -140 -148 -135 0 0 0 0 0 0 0 0 0 0 0 0 0 0 0 0 0 0 0 0 0 0 0 0 0 0 0 0 0 0 0 0 0 0 0 0 0 0
-82 -109 -136 -140 -144 0 0 0 0 0 0 0 0 0 0 0 0 0 0 0 0 0 0 0 0 0 0 0 0 0 0 0 0 0 0 0 0 0 0 0 0 0 0
-54 -67 -80 -106 -112 -121 -95 0 0 0 0 0 0 0 0 0 0 0 0 0 0 0 0 0 0 0 0 0 0 0 0 0 0 0 0 0 0 0 0 0 0 0 0
-59 -55 -52 -49 -34 -53 -72 -86 -17 -13 0 -29 0 -1 -56 0 0 0 0 0 0 0 0 0 0 0 0 0 0 0 0 0 0 0 0 0 0 0 0 0 0 0 0
-48 -37 -35 -37 -29 -35 -48 -65 -70 -62 -49 -58 -46 -43 -74 -123 -35 -4 0 0 0 0 0 0 0 -3 0 0 0 0 0 0 0 0 0 0 0 0 0 0 0 0 0
-60 -50 -26 -26 -32 -50 -48 -68 -74 -63 -54 -62 -45 -34 -51 -69 -129 0 0 0 0 0 0 0 0 -16 -9 -46 0 -7 0 0 0 0 0 0 0 0 0 0 0 0 0
0 -64 -64 -39 -30 -49 -58 -71 -101 -64 -39 -44 -58 -64 -54 -74 0 0 0 0 0 0 0 0 0 -13 -47 -10 0 0 0 0 -13 0 0 0 0 0 0 0 0 -4 0
0 0 -4 0 0 -36 -75 -64 -73 -14 0 -66 -79 -87 -86 -97 0 0 0 0 0 0 0 0 -22 -44 -21 0 0 0 0 0 0 0 -1 0 0 0 0 0 0 0 0
Wind_Speed
17 18 19 19 17 16 17 16 13 13 14 14 14 15 14 14 14 15 15 16 16 17 17 17 17 18 18 18 17 17 17 18 18 18 19 19 19 20 20 21 21 22 22
15 17 18 17 18 15 14 13 12 11 12 14 14 14 14 14 14 14 14 15 15 16 16 16 17 17 18 18 17 18 18 18 19 19 20 20 20 21 21 22 22 22 23
15 16 17 16 15 15 15 15 11 10 11 12 13 13 14 14 14 15 14 14 14 14 15 16 16 17 17 17 17 17 17 18 19 20 20 21 21 22 22 23 23 24 24
14 17 15 14 14 13 12 12 10 9 9 10 11 11 12 12 13 13 14 14 14 14 14 14 15 16 16 16 16 17 17 18 19 20 22 22 22 22 23 24 25 25 26
14 14 14 13 12 11 11 11 11 9 7 8 9 11 11 11 11 12 12 12 12 12 13 12 13 13 14 15 16 16 16 17 19 20 22 24 24 24 24 25 27 27 28
13 13 13 13 12 11 12 12 12 12 11 10 12 12 8 9 10 9 9 9 9 11 11 12 12 12 13 14 15 15 16 17 19 21 23 24 25 25 26 27 28 29 31
11 11 12 12 12 13 12 13 13 13 12 12 11 8 8 6 4 4 7 6 5 7 8 8 10 11 12 12 14 15 16 17 18 20 22 24 26 26 28 29 30 31 32
9 10 10 11 11 12 13 13 12 11 10 10 10 10 8 5 3 2 2 2 1 4 5 5 7 9 10 12 13 13 15 16 18 20 22 24 26 27 29 30 31 32 32
9 9 9 10 11 12 11 11 10 9 7 7 6 9 11 9 12 9 1 1 2 1 2 3 3 5 7 9 11 13 15 17 18 19 22 25 28 30 31 31 32 32 32
8 8 8 9 9 10 10 9 8 8 8 6 7 6 9 12 13 15 12 9 3 2 3 4 6 7 8 10 10 12 16 18 20 21 22 25 28 31 32 32 32 32 32
8 8 6 6 7 8 9 9 7 7 8 8 6 9 9 11 12 12 14 15 12 8 8 9 9 8 9 8 8 11 14 16 16 19 19 22 27 29 31 31 32 32 32
11 9 6 5 6 8 9 10 9 9 8 8 8 7 8 11 10 12 12 14 15 14 15 19 16 12 13 12 9 11 13 13 15 18 19 21 25 28 31 31 31 31 31
15 11 7 5 7 8 9 10 11 11 10 9 9 10 10 10 12 13 14 15 16 17 17 21 20 17 13 13 10 11 15 18 17 16 16 19 22 26 30 31 30 29 30
15 15 11 8 8 9 10 11 12 11 11 10 10 10 10 11 11 12 15 16 19 19 18 19 19 16 15 15 15 16 19 17 17 17 17 19 21 26 29 31 29 28 28
15 15 13 11 9 10 10 10 11 12 11 10 10 10 12 11 12 12 13 14 15 21 19 17 16 16 17 17 18 17 18 19 18 18 18 18 20 24 26 28 27 26 26
15 14 13 12 12 11 10 11 11 12 11 12 11 12 12 12 12 13 14 14 15 15 18 17 17 18 19 20 20 23 23 23 19 17 18 17 20 24 25 27 26 24 23
15 14 13 12 12 12 11 11 11 12 12 13 12 12 13 12 14 13 14 14 15 15 16 19 19 19 21 22 22 21 19 20 19 18 20 24 26 26 26 26 27 24 20
18 17 16 15 14 13 13 12 12 12 13 14 14 14 13 14 14 13 12 14 15 15 16 20 19 20 19 21 21 19 18 18 20 21 24 26 25 25 25 25 25 24 21
18 19 18 17 16 15 14 14 14 14 15 15 15 15 14 14 14 14 12 13 15 16 17 19 19 20 21 21 20 19 17 18 20 21 24 24 25 24 24 24 23 22 21
16 17 19 18 18 18 17 16 16 16 16 16 16 16 16 15 15 16 17 16 15 16 15 17 18 20 21 21 18 15 16 16 20 21 23 25 25 26 25 23 23 22 20
18 18 18 20 23 21 18 17 17 18 18 19 18 17 18 18 17 17 16 16 16 16 15 15 18 20 21 18 15 15 13 14 17 19 23 25 27 27 24 22 23 23 21
20 22 22 24 25 22 20 17 16 17 16 18 20 23 22 21 18 16 16 16 16 14 14 15 18 18 15 14 15 13 13 14 20 20 23 26 23 26 23 23 24 24 22
27 25 26 26 27 25 24 20 18 18 18 17 19 23 23 22 19 19 15 14 13 12 13 16 15 15 15 14 14 14 11 12 18 21 22 25 21 23 22 22 20 22 21
29 28 29 28 30 30 29 25 23 23 21 20 23 25 24 22 19 17 14 12 12 12 14 12 12 12 13 14 12 11 9 10 16 19 18 21 20 22 22 20 16 16 21
31 31 32 34 32 33 30 27 25 25 24 25 25 28 26 25 17 13 13 12 11 14 11 10 11 11 12 12 10 10 10 13 16 18 14 18 19 21 21 19 18 17 18
29 32 31 34 34 36 35 30 25 26 26 26 29 27 25 24 19 11 10 9 11 13 11 13 14 12 12 10 7 6 10 11 14 15 14 15 17 18 20 16 18 19 18
Wind_Direction
25 25 22 21 30 31 28 33 20 19 24 24 17 17 10 13 19 15 18 25 28 26 27 27 28 27 24 20 16 13 10 6 2 359 358 356 352 349 347 344 342 338 337
25 21 24 28 31 32 36 43 29 17 22 25 29 26 21 15 14 11 9 18 24 29 30 31 29 28 27 25 23 21 17 12 8 3 358 354 351 347 345 343 342 339 337
19 21 25 29 37 49 55 41 71 11 8 12 25 28 24 18 14 18 21 18 28 33 32 30 27 26 24 20 18 16 13 10 5 0 357 353 350 347 342 339 336 336 335
27 15 30 36 45 64 70 47 50 25 3 16 19 31 30 25 23 23 30 36 36 34 33 30 26 23 20 16 14 11 10 7 2 357 353 349 346 343 339 335 331 331 329
33 31 35 40 53 80 69 70 94 68 27 14 7 1 10 26 42 42 47 42 37 37 33 36 34 28 23 18 13 10 6 2 356 350 345 343 341 337 334 332 329 327 325
31 38 37 41 51 64 59 69 97 84 71 99 127 133 102 13 2 28 46 42 28 10 16 17 12 7 9 6 4 3 359 356 350 346 345 343 340 338 335 332 329 327 323
41 45 48 59 79 87 73 94 93 102 104 97 70 88 121 114 104 50 20 30 68 31 32 25 8 2 3 2 359 357 354 353 348 344 344 342 339 336 334 331 328 326 324
51 55 64 82 87 84 85 95 97 93 91 89 56 38 46 64 80 159 21 25 48 7 14 13 4 357 352 349 349 350 350 345 343 343 342 338 336 334 332 331 329 326 325
56 63 77 83 87 84 83 86 89 91 91 80 76 34 23 21 16 14 193 296 325 321 320 337 332 337 342 338 340 342 340 338 335 335 334 332 330 329 327 328 327 324 323
47 54 68 69 78 70 63 64 65 61 55 65 41 49 18 8 10 6 11 6 360 332 306 308 308 312 320 324 323 328 331 332 332 331 332 330 330 329 327 326 325 326 325
32 37 56 57 46 35 30 35 44 39 29 22 23 11 6 359 1 3 2 3 6 2 352 345 333 321 323 321 321 325 330 332 333 334 334 333 333 332 332 329 326 326 326
9 14 24 27 17 11 8 7 7 5 5 5 6 1 355 352 351 352 352 354 354 357 358 347 343 333 330 328 325 329 336 338 332 331 331 331 331 331 332 332 330 329 328
354 355 356 343 340 344 348 349 347 344 347 346 349 347 349 346 348 346 342 345 343 347 351 348 348 348 348 345 348 347 343 337 336 332 330 328 330 332 332 333 332 331 328
350 350 345 334 323 324 328 333 335 335 337 338 338 338 339 342 343 340 338 338 337 340 344 346 350 359 359 352 345 339 336 334 331 331 329 326 327 329 331 331 330 330 330
346 347 347 339 328 321 318 323 325 325 328 330 332 333 332 334 335 338 336 336 336 333 336 346 350 353 351 348 343 341 336 335 331 326 326 327 328 328 330 334 332 331 331
343 343 343 341 337 330 323 321 321 321 317 322 322 324 326 331 329 330 332 333 335 334 334 344 343 344 343 343 342 339 338 336 339 336 331 330 329 329 329 331 331 331 332
337 334 333 330 327 327 324 321 316 317 313 315 318 315 315 321 324 323 325 328 329 331 331 336 336 339 337 337 339 341 343 346 351 351 342 333 331 330 330 329 329 329 330
329 327 328 323 320 319 319 316 313 311 310 309 310 310 310 312 314 313 314 316 319 324 326 329 333 333 336 340 342 345 350 353 352 348 341 336 337 335 334 332 332 333 333
324 325 328 327 321 317 316 314 310 306 305 302 304 307 303 306 306 309 305 308 316 322 323 325 328 331 333 337 336 338 346 349 352 352 347 346 343 343 339 335 334 333 332
325 325 325 328 325 321 317 313 309 302 301 302 303 302 302 301 296 305 304 298 306 315 317 320 325 329 330 332 335 336 340 348 348 355 351 349 347 346 345 343 342 341 341
323 321 323 324 322 323 323 317 313 309 304 303 304 301 301 299 294 296 300 290 299 304 313 317 321 325 327 332 335 336 337 346 351 356 349 347 348 348 347 347 345 343 345
329 326 324 323 322 323 323 321 317 315 312 310 304 307 303 302 296 293 291 290 288 289 298 312 319 323 328 333 338 338 338 341 342 350 348 345 349 349 349 347 344 344 346
327 329 324 323 321 322 320 318 314 313 317 315 315 310 309 306 302 306 298 293 295 293 304 311 318 322 326 332 336 335 335 334 338 345 349 344 351 349 352 351 354 353 357
327 325 323 323 322 322 321 319 313 310 311 312 316 312 309 308 307 306 300 295 299 300 306 308 311 321 327 332 335 339 339 338 342 344 352 350 355 351 354 358 1 3 357
329 325 322 319 321 322 323 322 318 312 312 312 312 311 309 307 307 298 302 296 297 308 312 315 316 320 327 333 337 342 339 337 340 347 2 355 356 354 359 6 9 3 2
324 321 322 319 319 317 320 314 315 314 314 315 311 310 308 309 305 291 295 293 301 308 312 320 325 329 333 335 333 340 346 340 343 348 1 359 358 360 357 7 3 1 7